Time,TemperatureF,DewpointF,PressureIn,WindDirection,WindDirectionDegrees,WindSpeedMPH,WindSpeedGustMPH,Humidity,HourlyPrecipIn,Conditions,Clouds,dailyrainin,SoftwareType,DateUTC
2013-02-10 00:00:00,38.2,33.2,29.72,SE,141,8.0,8.0,82,0.00,,,0.01,Wunderground v.1.15,2013-02-10 06:00:00,
2013-02-10 00:05:00,38.2,33.2,29.71,SE,132,7.0,10.0,82,0.00,,,0.01,Wunderground v.1.15,2013-02-10 06:05:00,
2013-02-10 00:15:00,38.1,33.4,29.71,SE,136,7.0,12.0,83,0.00,,,0.00,Wunderground v.1.15,2013-02-10 06:15:00,
2013-02-10 00:20:00,38.0,33.3,29.70,SE,128,8.0,8.0,83,0.00,,,0.00,Wunderground v.1.15,2013-02-10 06:20:00,
2013-02-10 00:25:00,38.0,33.3,29.70,SE,136,9.0,9.0,83,0.00,,,0.00,Wunderground v.1.15,2013-02-10 06:25:00,
2013-02-10 00:35:00,38.0,33.3,29.69,ESE,115,6.0,9.0,83,0.00,,,0.00,Wunderground v.1.15,2013-02-10 06:35:00,
2013-02-10 00:40:00,38.0,33.3,29.69,SE,138,8.0,14.0,83,0.00,,,0.00,Wunderground v.1.15,2013-02-10 06:40:00,
2013-02-10 00:50:00,38.0,33.3,29.68,SSE,151,9.0,13.0,83,0.00,,,0.00,Wunderground v.1.15,2013-02-10 06:50:00,
2013-02-10 00:55:00,37.9,33.5,29.68,ESE,116,8.0,13.0,84,0.00,,,0.00,Wunderground v.1.15,2013-02-10 06:55:00,
2013-02-10 01:05:00,37.9,33.5,29.68,SE,145,10.0,10.0,84,0.00,,,0.00,Wunderground v.1.15,2013-02-10 07:05:00,
2013-02-10 01:15:00,37.9,33.8,29.67,SE,132,10.0,13.0,85,0.00,,,0.00,Wunderground v.1.15,2013-02-10 07:15:00,
2013-02-10 01:25:00,37.8,34.0,29.66,ESE,123,11.0,15.0,86,0.00,,,0.00,Wunderground v.1.15,2013-02-10 07:25:00,
2013-02-10 01:35:00,37.8,34.3,29.64,SE,124,12.0,15.0,87,0.00,,,0.00,Wunderground v.1.15,2013-02-10 07:35:00,
2013-02-10 01:40:00,37.6,34.1,29.60,ESE,102,13.0,20.0,87,0.00,,,0.00,Wunderground v.1.15,2013-02-10 07:40:00,
2013-02-10 01:50:00,37.4,34.2,29.60,East,86,13.0,13.0,88,0.10,,,0.02,Wunderground v.1.15,2013-02-10 07:50:00,
2013-02-10 01:55:00,37.3,34.4,29.60,SE,142,9.0,13.0,89,0.05,,,0.02,Wunderground v.1.15,2013-02-10 07:55:00,
2013-02-10 02:05:00,37.3,34.4,29.61,SE,134,8.0,8.0,89,0.00,,,0.02,Wunderground v.1.15,2013-02-10 08:05:00,
2013-02-10 02:15:00,37.5,34.8,29.63,SSE,150,10.0,20.0,90,0.00,,,0.02,Wunderground v.1.15,2013-02-10 08:15:00,
2013-02-10 02:20:00,37.5,34.8,29.61,ESE,123,11.0,15.0,90,0.00,,,0.02,Wunderground v.1.15,2013-02-10 08:20:00,
2013-02-10 02:30:00,37.5,35.1,29.60,ESE,115,11.0,13.0,91,0.00,,,0.02,Wunderground v.1.15,2013-02-10 08:30:00,
2013-02-10 02:35:00,37.5,35.1,29.60,SE,134,12.0,14.0,91,0.00,,,0.02,Wunderground v.1.15,2013-02-10 08:35:00,
2013-02-10 02:45:00,37.6,35.2,29.59,SE,140,12.0,13.0,91,0.00,,,0.02,Wunderground v.1.15,2013-02-10 08:45:00,
2013-02-10 02:50:00,37.7,35.3,29.58,ESE,117,12.0,12.0,91,0.00,,,0.02,Wunderground v.1.15,2013-02-10 08:50:00,
2013-02-10 02:55:00,37.8,35.7,29.58,SE,143,12.0,12.0,92,0.00,,,0.02,Wunderground v.1.15,2013-02-10 08:55:00,
2013-02-10 03:05:00,37.8,35.7,29.57,ESE,111,10.0,14.0,92,0.00,,,0.02,Wunderground v.1.15,2013-02-10 09:05:00,
2013-02-10 03:15:00,37.8,35.7,29.56,SE,129,12.0,23.0,92,0.00,,,0.02,Wunderground v.1.15,2013-02-10 09:15:00,
2013-02-10 03:25:00,37.8,35.7,29.53,ESE,109,11.0,12.0,92,0.00,,,0.02,Wunderground v.1.15,2013-02-10 09:25:00,
2013-02-10 03:30:00,37.8,35.7,29.53,SE,140,12.0,12.0,92,0.00,,,0.02,Wunderground v.1.15,2013-02-10 09:30:00,
2013-02-10 03:35:00,37.9,36.1,29.52,SSE,151,13.0,17.0,93,0.00,,,0.02,Wunderground v.1.15,2013-02-10 09:35:00,
2013-02-10 03:45:00,38.0,36.2,29.51,SE,146,13.0,13.0,93,0.00,,,0.02,Wunderground v.1.15,2013-02-10 09:45:00,
2013-02-10 03:50:00,38.0,36.2,29.50,SE,125,15.0,15.0,93,0.00,,,0.02,Wunderground v.1.15,2013-02-10 09:50:00,
2013-02-10 04:00:00,38.0,36.2,29.48,East,101,12.0,19.0,93,0.00,,,0.02,Wunderground v.1.15,2013-02-10 10:00:00,
2013-02-10 04:05:00,38.1,36.3,29.48,ESE,108,12.0,19.0,93,0.00,,,0.03,Wunderground v.1.15,2013-02-10 10:05:00,
2013-02-10 04:15:00,38.1,36.3,29.48,SE,137,12.0,17.0,93,0.00,,,0.03,Wunderground v.1.15,2013-02-10 10:15:00,
2013-02-10 04:25:00,38.3,36.5,29.47,SE,132,14.0,22.0,93,0.00,,,0.03,Wunderground v.1.15,2013-02-10 10:25:00,
2013-02-10 04:30:00,38.3,36.5,29.47,SE,129,14.0,18.0,93,0.00,,,0.03,Wunderground v.1.15,2013-02-10 10:30:00,
2013-02-10 04:40:00,38.4,36.8,29.45,SE,128,13.0,17.0,94,0.00,,,0.03,Wunderground v.1.15,2013-02-10 10:40:00,
2013-02-10 04:45:00,38.4,36.8,29.43,SE,128,13.0,17.0,94,0.00,,,0.03,Wunderground v.1.15,2013-02-10 10:45:00,
2013-02-10 04:55:00,38.5,36.9,29.42,ESE,117,14.0,17.0,94,0.00,,,0.03,Wunderground v.1.15,2013-02-10 10:55:00,
2013-02-10 05:00:00,38.6,37.0,29.42,ESE,121,14.0,14.0,94,0.00,,,0.03,Wunderground v.1.15,2013-02-10 11:00:00,
2013-02-10 05:05:00,38.6,37.0,29.42,SE,130,15.0,15.0,94,0.00,,,0.03,Wunderground v.1.15,2013-02-10 11:05:00,
2013-02-10 05:15:00,38.8,37.2,29.42,SE,126,14.0,20.0,94,0.00,,,0.03,Wunderground v.1.15,2013-02-10 11:15:00,
2013-02-10 05:20:00,38.8,37.2,29.42,SSE,155,15.0,18.0,94,0.00,,,0.03,Wunderground v.1.15,2013-02-10 11:20:00,
2013-02-10 05:25:00,38.8,37.2,29.41,ESE,123,15.0,24.0,94,0.00,,,0.03,Wunderground v.1.15,2013-02-10 11:25:00,
2013-02-10 05:35:00,38.9,37.3,29.40,SE,128,16.0,17.0,94,0.00,,,0.03,Wunderground v.1.15,2013-02-10 11:35:00,
2013-02-10 05:45:00,39.0,37.4,29.40,SE,126,13.0,14.0,94,0.00,,,0.03,Wunderground v.1.15,2013-02-10 11:45:00,
2013-02-10 05:50:00,39.1,37.5,29.41,ESE,123,12.0,17.0,94,0.00,,,0.03,Wunderground v.1.15,2013-02-10 11:50:00,
2013-02-10 06:00:00,39.1,37.5,29.41,SE,132,11.0,11.0,94,0.00,,,0.03,Wunderground v.1.15,2013-02-10 12:00:00,
2013-02-10 06:05:00,39.2,37.6,29.40,SE,138,9.0,11.0,94,0.00,,,0.04,Wunderground v.1.15,2013-02-10 12:05:00,
2013-02-10 06:15:00,39.3,37.7,29.41,ESE,122,9.0,15.0,94,0.00,,,0.04,Wunderground v.1.15,2013-02-10 12:15:00,
2013-02-10 06:20:00,39.5,37.9,29.39,SE,140,9.0,9.0,94,0.00,,,0.04,Wunderground v.1.15,2013-02-10 12:20:00,
2013-02-10 06:30:00,39.7,38.1,29.38,SE,142,11.0,11.0,94,0.00,,,0.04,Wunderground v.1.15,2013-02-10 12:30:00,
2013-02-10 06:40:00,39.9,38.3,29.39,SE,139,11.0,11.0,94,0.00,,,0.04,Wunderground v.1.15,2013-02-10 12:40:00,
2013-02-10 06:45:00,40.0,38.4,29.39,SE,133,10.0,11.0,94,0.00,,,0.04,Wunderground v.1.15,2013-02-10 12:45:00,
2013-02-10 06:55:00,40.2,38.9,29.39,SE,143,10.0,12.0,95,0.00,,,0.04,Wunderground v.1.15,2013-02-10 12:55:00,
2013-02-10 07:00:00,40.2,38.9,29.39,SSE,148,10.0,11.0,95,0.00,,,0.04,Wunderground v.1.15,2013-02-10 13:00:00,
2013-02-10 07:05:00,40.4,39.1,29.39,SSE,151,9.0,11.0,95,0.00,,,0.04,Wunderground v.1.15,2013-02-10 13:05:00,
2013-02-10 07:15:00,40.6,39.3,29.39,SSE,168,8.0,9.0,95,0.00,,,0.04,Wunderground v.1.15,2013-02-10 13:15:00,
2013-02-10 07:25:00,40.8,39.5,29.38,SSE,163,9.0,12.0,95,0.00,,,0.04,Wunderground v.1.15,2013-02-10 13:25:00,
2013-02-10 07:35:00,41.1,39.8,29.37,SE,144,10.0,15.0,95,0.00,,,0.04,Wunderground v.1.15,2013-02-10 13:35:00,
2013-02-10 07:40:00,41.1,39.8,29.37,SE,140,11.0,11.0,95,0.00,,,0.04,Wunderground v.1.15,2013-02-10 13:40:00,
2013-02-10 07:45:00,41.1,39.8,29.37,SE,137,10.0,11.0,95,0.00,,,0.04,Wunderground v.1.15,2013-02-10 13:45:00,
2013-02-10 07:55:00,41.2,39.9,29.36,SE,145,10.0,10.0,95,0.00,,,0.04,Wunderground v.1.15,2013-02-10 13:55:00,
2013-02-10 08:05:00,41.4,40.1,29.36,SE,136,11.0,13.0,95,0.00,,,0.04,Wunderground v.1.15,2013-02-10 14:05:00,
2013-02-10 08:15:00,41.6,40.3,29.35,SE,128,9.0,10.0,95,0.00,,,0.04,Wunderground v.1.15,2013-02-10 14:15:00,
2013-02-10 08:20:00,41.7,40.4,29.35,SSE,147,10.0,10.0,95,0.00,,,0.04,Wunderground v.1.15,2013-02-10 14:20:00,
2013-02-10 08:30:00,41.8,40.5,29.33,SSE,149,10.0,10.0,95,0.00,,,0.04,Wunderground v.1.15,2013-02-10 14:30:00,
2013-02-10 08:35:00,42.0,40.7,29.33,SSE,151,10.0,12.0,95,0.00,,,0.04,Wunderground v.1.15,2013-02-10 14:35:00,
2013-02-10 10:50:00,42.2,34.5,29.28,South,183,17.0,19.0,74,0.00,,,0.05,Wunderground v.1.15,2013-02-10 16:50:00,
2013-02-10 11:00:00,41.2,33.5,29.28,South,182,14.0,14.0,74,0.00,,,0.05,Wunderground v.1.15,2013-02-10 17:00:00,
2013-02-10 11:05:00,40.7,33.4,29.29,SSW,198,12.0,14.0,75,0.00,,,0.05,Wunderground v.1.15,2013-02-10 17:05:00,
2013-02-10 11:15:00,40.0,33.0,29.29,SW,214,14.0,16.0,76,0.00,,,0.05,Wunderground v.1.15,2013-02-10 17:15:00,
2013-02-10 11:25:00,39.6,32.7,29.29,SSW,204,14.0,15.0,76,0.00,,,0.05,Wunderground v.1.15,2013-02-10 17:25:00,
2013-02-10 11:30:00,39.5,32.6,29.29,South,186,14.0,19.0,76,0.00,,,0.05,Wunderground v.1.15,2013-02-10 17:30:00,
2013-02-10 11:40:00,39.2,32.6,29.30,South,170,14.0,14.0,77,0.00,,,0.05,Wunderground v.1.15,2013-02-10 17:40:00,
2013-02-10 11:50:00,38.9,31.6,29.30,SW,221,14.0,15.0,75,0.00,,,0.05,Wunderground v.1.15,2013-02-10 17:50:00,
2013-02-10 12:00:00,38.8,31.6,29.30,SSW,199,10.0,11.0,75,0.00,,,0.05,Wunderground v.1.15,2013-02-10 18:00:00,
2013-02-10 12:05:00,38.7,31.5,29.30,SSW,205,11.0,11.0,75,0.00,,,0.05,Wunderground v.1.15,2013-02-10 18:05:00,
2013-02-10 12:15:00,38.5,31.6,29.29,SSW,213,12.0,16.0,76,0.00,,,0.05,Wunderground v.1.15,2013-02-10 18:15:00,
2013-02-10 12:20:00,38.2,31.3,29.29,SW,214,15.0,22.0,76,0.00,,,0.05,Wunderground v.1.15,2013-02-10 18:20:00,
2013-02-10 12:25:00,38.0,31.1,29.29,SW,233,16.0,22.0,76,0.00,,,0.05,Wunderground v.1.15,2013-02-10 18:25:00,
2013-02-10 12:35:00,37.6,31.4,29.29,SSW,211,15.0,16.0,78,0.00,,,0.05,Wunderground v.1.15,2013-02-10 18:35:00,
2013-02-10 12:45:00,37.4,31.5,29.29,SW,215,12.0,13.0,79,0.00,,,0.05,Wunderground v.1.15,2013-02-10 18:45:00,
2013-02-10 12:50:00,37.4,31.5,29.29,SW,217,12.0,13.0,79,0.00,,,0.05,Wunderground v.1.15,2013-02-10 18:50:00,
2013-02-10 13:00:00,37.4,31.8,29.29,South,185,14.0,15.0,80,0.00,,,0.05,Wunderground v.1.15,2013-02-10 19:00:00,
2013-02-10 13:05:00,37.3,31.7,29.28,SW,224,13.0,15.0,80,0.00,,,0.05,Wunderground v.1.15,2013-02-10 19:05:00,
2013-02-10 13:15:00,37.4,32.1,29.28,SSW,212,12.0,16.0,81,0.00,,,0.05,Wunderground v.1.15,2013-02-10 19:15:00,
2013-02-10 13:25:00,37.5,32.5,29.29,South,186,9.0,12.0,82,0.00,,,0.05,Wunderground v.1.15,2013-02-10 19:25:00,
2013-02-10 13:35:00,37.5,32.5,29.27,SSW,211,10.0,11.0,82,0.00,,,0.05,Wunderground v.1.15,2013-02-10 19:35:00,
2013-02-10 13:45:00,37.7,33.0,29.28,SSW,209,11.0,12.0,83,0.00,,,0.05,Wunderground v.1.15,2013-02-10 19:45:00,
2013-02-10 13:55:00,37.8,33.4,29.28,SW,217,11.0,11.0,84,0.00,,,0.05,Wunderground v.1.15,2013-02-10 19:55:00,
2013-02-10 14:00:00,37.7,33.6,29.28,SW,219,11.0,11.0,85,0.00,,,0.05,Wunderground v.1.15,2013-02-10 20:00:00,
2013-02-10 14:05:00,37.6,33.5,29.28,SW,215,11.0,11.0,85,0.00,,,0.05,Wunderground v.1.15,2013-02-10 20:05:00,
2013-02-10 14:15:00,37.4,33.6,29.28,SW,219,11.0,11.0,86,0.00,,,0.05,Wunderground v.1.15,2013-02-10 20:15:00,
2013-02-10 14:20:00,37.3,33.8,29.29,SW,225,9.0,9.0,87,0.00,,,0.05,Wunderground v.1.15,2013-02-10 20:20:00,
2013-02-10 14:30:00,37.1,33.9,29.29,SW,229,7.0,8.0,88,0.00,,,0.05,Wunderground v.1.15,2013-02-10 20:30:00,
2013-02-10 14:35:00,37.1,33.9,29.30,SW,230,7.0,8.0,88,0.00,,,0.05,Wunderground v.1.15,2013-02-10 20:35:00,
2013-02-10 14:45:00,37.1,34.2,29.30,SW,214,7.0,9.0,89,0.00,,,0.05,Wunderground v.1.15,2013-02-10 20:45:00,
2013-02-10 14:50:00,37.2,34.3,29.30,WSW,239,8.0,10.0,89,0.00,,,0.05,Wunderground v.1.15,2013-02-10 20:50:00,
2013-02-10 15:00:00,37.6,34.9,29.31,WSW,238,10.0,10.0,90,0.00,,,0.05,Wunderground v.1.15,2013-02-10 21:00:00,
2013-02-10 15:05:00,37.8,35.1,29.31,West,274,11.0,11.0,90,0.00,,,0.05,Wunderground v.1.15,2013-02-10 21:05:00,
2013-02-10 15:15:00,38.1,35.4,29.32,West,277,12.0,19.0,90,0.00,,,0.05,Wunderground v.1.15,2013-02-10 21:15:00,
2013-02-10 15:20:00,38.1,35.4,29.32,West,281,14.0,14.0,90,0.00,,,0.05,Wunderground v.1.15,2013-02-10 21:20:00,
2013-02-10 15:25:00,38.1,35.4,29.33,SW,234,13.0,17.0,90,0.00,,,0.05,Wunderground v.1.15,2013-02-10 21:25:00,
2013-02-10 15:35:00,38.0,35.3,29.34,WNW,284,12.0,18.0,90,0.00,,,0.05,Wunderground v.1.15,2013-02-10 21:35:00,
2013-02-10 15:40:00,37.9,35.2,29.35,West,275,14.0,14.0,90,0.00,,,0.05,Wunderground v.1.15,2013-02-10 21:40:00,
2013-02-10 15:50:00,37.7,34.8,29.37,West,281,15.0,16.0,89,0.00,,,0.05,Wunderground v.1.15,2013-02-10 21:50:00,
2013-02-10 15:55:00,37.6,34.7,29.37,WNW,288,14.0,16.0,89,0.00,,,0.05,Wunderground v.1.15,2013-02-10 21:55:00,
2013-02-10 16:05:00,37.4,33.9,29.39,SSW,209,14.0,17.0,87,0.00,,,0.05,Wunderground v.1.15,2013-02-10 22:05:00,
2013-02-10 16:15:00,37.2,33.4,29.40,WSW,250,14.0,15.0,86,0.00,,,0.05,Wunderground v.1.15,2013-02-10 22:15:00,
2013-02-10 16:20:00,36.8,32.7,29.41,WNW,286,15.0,15.0,85,0.00,,,0.05,Wunderground v.1.15,2013-02-10 22:20:00,
2013-02-10 16:30:00,36.0,31.6,29.41,WNW,284,17.0,17.0,84,0.00,,,0.05,Wunderground v.1.15,2013-02-10 22:30:00,
2013-02-10 16:40:00,35.3,30.7,29.43,West,266,17.0,17.0,83,0.00,,,0.05,Wunderground v.1.15,2013-02-10 22:40:00,
2013-02-10 16:45:00,35.0,30.4,29.44,WSW,254,15.0,21.0,83,0.00,,,0.05,Wunderground v.1.15,2013-02-10 22:45:00,
2013-02-10 16:50:00,34.7,29.8,29.45,WSW,251,15.0,15.0,82,0.00,,,0.05,Wunderground v.1.15,2013-02-10 22:50:00,
2013-02-10 17:00:00,34.1,29.5,29.46,West,266,13.0,13.0,83,0.00,,,0.05,Wunderground v.1.15,2013-02-10 23:00:00,
2013-02-10 17:05:00,33.8,29.5,29.47,WSW,258,12.0,17.0,84,0.00,,,0.05,Wunderground v.1.15,2013-02-10 23:05:00,
2013-02-10 17:10:00,33.5,28.9,29.48,West,272,13.0,14.0,83,0.00,,,0.05,Wunderground v.1.15,2013-02-10 23:10:00,
2013-02-10 17:20:00,33.2,28.9,29.48,West,263,14.0,14.0,84,0.00,,,0.05,Wunderground v.1.15,2013-02-10 23:20:00,
2013-02-10 17:30:00,33.1,28.8,29.49,WSW,243,12.0,12.0,84,0.00,,,0.05,Wunderground v.1.15,2013-02-10 23:30:00,
2013-02-10 17:35:00,33.0,28.7,29.50,WNW,296,12.0,15.0,84,0.00,,,0.05,Wunderground v.1.15,2013-02-10 23:35:00,
2013-02-10 17:45:00,32.9,28.0,29.51,West,275,15.0,21.0,82,0.00,,,0.05,Wunderground v.1.15,2013-02-10 23:45:00,
2013-02-10 17:50:00,32.9,27.7,29.51,West,271,18.0,20.0,81,0.00,,,0.05,Wunderground v.1.15,2013-02-10 23:50:00,
2013-02-10 18:00:00,32.9,27.1,29.52,WNW,290,17.0,17.0,79,0.00,,,0.05,Wunderground v.1.15,2013-02-11 00:00:00,
2013-02-10 18:05:00,32.9,27.1,29.53,WNW,288,15.0,17.0,79,0.00,,,0.05,Wunderground v.1.15,2013-02-11 00:05:00,
2013-02-10 18:15:00,32.9,26.8,29.54,WNW,285,16.0,20.0,78,0.00,,,0.05,Wunderground v.1.15,2013-02-11 00:15:00,
2013-02-10 18:25:00,32.8,26.7,29.55,WSW,249,12.0,13.0,78,0.00,,,0.05,Wunderground v.1.15,2013-02-11 00:25:00,
2013-02-10 18:35:00,32.6,26.2,29.57,WNW,295,15.0,19.0,77,0.00,,,0.05,Wunderground v.1.15,2013-02-11 00:35:00,
2013-02-10 18:45:00,32.4,25.7,29.57,WSW,256,15.0,15.0,76,0.00,,,0.05,Wunderground v.1.15,2013-02-11 00:45:00,
2013-02-10 18:50:00,32.3,25.6,29.58,WNW,286,15.0,15.0,76,0.00,,,0.05,Wunderground v.1.15,2013-02-11 00:50:00,
2013-02-10 19:00:00,32.3,25.6,29.58,West,275,16.0,16.0,76,0.00,,,0.05,Wunderground v.1.15,2013-02-11 01:00:00,
2013-02-10 19:05:00,32.3,25.6,29.58,WNW,295,17.0,17.0,76,0.00,,,0.05,Wunderground v.1.15,2013-02-11 01:05:00,
2013-02-10 19:15:00,32.2,25.5,29.59,West,275,16.0,19.0,76,0.00,,,0.05,Wunderground v.1.15,2013-02-11 01:15:00,
2013-02-10 19:20:00,32.1,25.1,29.60,West,279,15.0,15.0,75,0.00,,,0.05,Wunderground v.1.15,2013-02-11 01:20:00,
2013-02-10 19:25:00,32.0,25.0,29.60,WNW,298,15.0,15.0,75,0.00,,,0.05,Wunderground v.1.15,2013-02-11 01:25:00,
2013-02-10 19:35:00,31.8,24.8,29.61,West,279,16.0,21.0,75,0.00,,,0.05,Wunderground v.1.15,2013-02-11 01:35:00,
2013-02-10 19:45:00,31.7,24.4,29.61,WNW,293,18.0,23.0,74,0.00,,,0.05,Wunderground v.1.15,2013-02-11 01:45:00,
2013-02-10 19:55:00,31.6,24.6,29.62,WNW,295,14.0,16.0,75,0.00,,,0.05,Wunderground v.1.15,2013-02-11 01:55:00,
2013-02-10 20:05:00,31.4,24.4,29.62,WNW,294,15.0,19.0,75,0.00,,,0.05,Wunderground v.1.15,2013-02-11 02:05:00,
2013-02-10 20:15:00,31.3,24.0,29.63,WNW,284,19.0,19.0,74,0.00,,,0.05,Wunderground v.1.15,2013-02-11 02:15:00,
2013-02-10 20:25:00,31.2,23.9,29.64,WNW,285,15.0,19.0,74,0.00,,,0.05,Wunderground v.1.15,2013-02-11 02:25:00,
2013-02-10 20:35:00,31.2,23.9,29.65,WNW,283,16.0,18.0,74,0.00,,,0.05,Wunderground v.1.15,2013-02-11 02:35:00,
2013-02-10 20:45:00,31.2,23.9,29.65,WNW,284,16.0,23.0,74,0.00,,,0.05,Wunderground v.1.15,2013-02-11 02:45:00,
2013-02-10 20:55:00,31.2,23.9,29.66,WNW,288,17.0,19.0,74,0.00,,,0.05,Wunderground v.1.15,2013-02-11 02:55:00,
2013-02-10 21:00:00,31.2,23.9,29.66,NW,308,16.0,24.0,74,0.00,,,0.05,Wunderground v.1.15,2013-02-11 03:00:00,
2013-02-10 21:05:00,31.3,24.0,29.67,WSW,251,18.0,24.0,74,0.00,,,0.05,Wunderground v.1.15,2013-02-11 03:05:00,
2013-02-10 21:15:00,31.3,24.0,29.67,West,274,16.0,21.0,74,0.00,,,0.05,Wunderground v.1.15,2013-02-11 03:15:00,
2013-02-10 21:20:00,31.3,24.0,29.68,West,271,15.0,18.0,74,0.00,,,0.05,Wunderground v.1.15,2013-02-11 03:20:00,
2013-02-10 21:30:00,31.3,24.0,29.69,West,270,14.0,17.0,74,0.00,,,0.05,Wunderground v.1.15,2013-02-11 03:30:00,
2013-02-10 21:35:00,31.3,24.0,29.69,NW,314,15.0,18.0,74,0.00,,,0.05,Wunderground v.1.15,2013-02-11 03:35:00,
2013-02-10 21:45:00,31.3,23.6,29.70,WNW,284,15.0,21.0,73,0.00,,,0.05,Wunderground v.1.15,2013-02-11 03:45:00,
2013-02-10 21:50:00,31.3,23.3,29.71,West,277,16.0,16.0,72,0.00,,,0.05,Wunderground v.1.15,2013-02-11 03:50:00,
2013-02-10 21:55:00,31.2,23.2,29.72,WSW,249,16.0,16.0,72,0.00,,,0.05,Wunderground v.1.15,2013-02-11 03:55:00,
2013-02-10 22:05:00,31.1,22.8,29.73,WNW,291,18.0,18.0,71,0.00,,,0.05,Wunderground v.1.15,2013-02-11 04:05:00,
2013-02-10 22:15:00,31.1,23.1,29.73,WSW,256,14.0,20.0,72,0.00,,,0.05,Wunderground v.1.15,2013-02-11 04:15:00,
2013-02-10 22:20:00,31.1,23.1,29.74,WNW,285,14.0,21.0,72,0.00,,,0.05,Wunderground v.1.15,2013-02-11 04:20:00,
2013-02-10 22:30:00,31.0,23.0,29.75,WNW,293,16.0,16.0,72,0.00,,,0.05,Wunderground v.1.15,2013-02-11 04:30:00,
2013-02-10 22:35:00,30.9,22.9,29.75,West,280,16.0,16.0,72,0.00,,,0.05,Wunderground v.1.15,2013-02-11 04:35:00,
2013-02-10 22:45:00,30.7,22.7,29.76,WNW,284,17.0,17.0,72,0.00,,,0.05,Wunderground v.1.15,2013-02-11 04:45:00,
2013-02-10 22:55:00,30.4,22.8,29.76,West,266,15.0,20.0,73,0.00,,,0.05,Wunderground v.1.15,2013-02-11 04:55:00,
2013-02-10 23:00:00,30.3,22.7,29.77,West,270,16.0,16.0,73,0.00,,,0.05,Wunderground v.1.15,2013-02-11 05:00:00,
2013-02-10 23:05:00,30.2,22.6,29.77,WNW,295,16.0,16.0,73,0.00,,,0.05,Wunderground v.1.15,2013-02-11 05:05:00,
2013-02-10 23:10:00,30.1,22.8,29.77,WNW,294,16.0,16.0,74,0.00,,,0.05,Wunderground v.1.15,2013-02-11 05:10:00,
2013-02-10 23:15:00,30.0,22.7,29.78,WNW,297,15.0,17.0,74,0.00,,,0.05,Wunderground v.1.15,2013-02-11 05:15:00,
2013-02-10 23:20:00,29.9,22.6,29.78,West,259,15.0,15.0,74,0.00,,,0.05,Wunderground v.1.15,2013-02-11 05:20:00,
2013-02-10 23:25:00,29.9,22.6,29.78,NW,305,16.0,16.0,74,0.00,,,0.05,Wunderground v.1.15,2013-02-11 05:25:00,
2013-02-10 23:35:00,29.8,22.5,29.79,WNW,284,17.0,24.0,74,0.00,,,0.05,Wunderground v.1.15,2013-02-11 05:35:00,
2013-02-10 23:40:00,29.7,22.4,29.79,West,279,16.0,16.0,74,0.00,,,0.05,Wunderground v.1.15,2013-02-11 05:40:00,
2013-02-10 23:50:00,29.7,22.4,29.80,WNW,290,15.0,17.0,74,0.00,,,0.05,Wunderground v.1.15,2013-02-11 05:50:00,
2013-02-10 23:55:00,29.6,22.3,29.80,West,270,17.0,17.0,74,0.00,,,0.05,Wunderground v.1.15,2013-02-11 05:55:00,